INSAT-3DR

Last updated on Fri Sep 19 2025 00:02:22 GMT+0000 (Coordinated Universal Time)

1 41752U 16054A 25261.01016838 -.00000098 00000+0 00000+0 0 9994 2 41752 0.0580 91.5791 0012470 172.0457 171.2196 1.00271985 33080
UTC large
Height (km)
Speed (km/s)
/
Latitude / Longitude
Inclination (degrees)
Orbital Period (minutes)
Azimuth
Elevation
Range (km)
Doppler Factor

Next 0 passes for location: London (51.5072 / 0.1276)

Sorry there are no passes over London.